Flag for Norway Weather past 2 weeks in Lillestrøm, Norway

Now
53 °F

Cool.


Feels Like: 53 °F
Forecast: 46 / 57 °F
Wind: 1 mph from Northeast

Location: Oslo-Blindern

Current Time: Oct 2, 2014 at 3:50:46 AM

Latest Report: Oct 2, 2014 at 3:00 AM


Visibility: N/A

Pressure: 30.18 "Hg

Humidity: 98%

Dew point: 52 °F

Location of LillestrømLocation

Historic Weather in Lillestrøm — Graph

°F

Lillestrøm temperature yesterday

Maximum temperature yesterday: 55 °F (at 3:00 PM)
Minimum temperature yesterday: 43 °F (at 4:00 AM)
Average temperature yesterday: 49 °F

Past Weeks' High & Low Weather Summary

 TemperatureHumidityPressure
High67 °F (Sep 17, 3:00 PM)97% (Sep 18, 7:00 AM)30.37 "Hg (Sep 18, 7:00 AM)
Low39 °F (Sep 23, 3:00 AM)38% (Sep 26, 4:00 PM)29.47 "Hg (Sep 26, 1:00 PM)
Average52 °F73%29.97 "Hg
* Reported Sep 17 2:00 AM — Oct 2 2:00 AM, Lillestrøm, Weather by CustomWeather, © 2014

Note: Actual official high and low records may vary slightly from our data, if they occured in-between our weather recording intervals... More about our weather records

Advertising

Lillestrøm weather history for previous 24 hours

 ConditionsComfort  
Time TempWeatherWind HumidityBarometerVisibility
2:00 AM
Oct 2
52 °FLight rain. Overcast.2 mph97%30.19 "Hg25 mi
1:00 AM51 °FCool.1 mph97%30.19 "HgN/A
12:00 AM51 °FCool.1 mph96%30.20 "HgN/A
11:00 PM
Oct 1
50 °FLight rain. Overcast.1 mph93%30.21 "Hg43 mi
10:00 PM52 °FCool.2 mph87%30.22 "HgN/A
9:00 PM53 °FCool.3 mph79%30.24 "HgN/A
8:00 PM53 °FOvercast.3 mph75%30.24 "Hg43 mi
7:00 PM52 °FCool.2 mph76%30.25 "HgN/A
6:00 PM52 °FCool.1 mph70%30.26 "HgN/A
5:00 PM53 °FCool.1 mph67%30.27 "HgN/A
4:00 PM55 °FCool.2 mph63%30.27 "HgN/A
3:00 PM55 °FCool.1 mph62%30.29 "HgN/A
2:00 PM55 °FOvercast.1 mph58%30.30 "Hg43 mi
1:00 PM52 °FCool.2 mph65%30.32 "HgN/A
12:00 PM50 °FCool.2 mph73%30.33 "HgN/A
11:00 AM49 °FOvercast.1 mph76%30.34 "Hg43 mi
10:00 AM48 °FCool.1 mph79%30.35 "HgN/A
9:00 AM47 °FCool.2 mph81%30.35 "HgN/A
8:00 AM46 °FPartly sunny.1 mph83%30.35 "Hg43 mi
7:00 AM46 °FCool.1 mph82%30.34 "HgN/A
6:00 AM46 °FCool.2 mph83%30.36 "HgN/A
5:00 AM44 °FPassing clouds.3 mph86%30.36 "Hg40 mi
4:00 AM43 °FQuite cool.3 mph87%30.37 "HgN/A
3:00 AM44 °FQuite cool.3 mph83%30.37 "HgN/A
Weather by CustomWeather, © 2014

See weather overviewHow to use our weather pages